This is the latest recevied weather packets stored in our database for station/object WA7CUG. If no packets are shown the sender has not sent any weather packets the latest 10 day(s).
| Time | Temp. | Humidity | Pressure | Rain* | Wind** | Luminosity | Snow |
|---|---|---|---|---|---|---|---|
| 1778125436 | 22.78° C | 30% | 1011.1 hPa | 0 mm | - | 0 W/m² | - |
| 1778125134 | 22.78° C | 31% | 1010.9 hPa | 0 mm | - | 0 W/m² | - |
| 1778124832 | 23.33° C | 32% | 1010.6 hPa | 0 mm | - | 0 W/m² | - |
| 1778124529 | 23.33° C | 32% | 1010.7 hPa | 0 mm | - | 1 W/m² | - |
| 1778124225 | 23.33° C | 32% | 1010.6 hPa | 0 mm | - | 1 W/m² | - |
| 1778123921 | 23.33° C | 32% | 1010.5 hPa | 0 mm | - | 2 W/m² | - |
| 1778123619 | 23.33° C | 32% | 1010.6 hPa | 0 mm | - | 4 W/m² | - |
| 1778123315 | 23.89° C | 31% | 1010.6 hPa | 0 mm | - | 6 W/m² | - |
| 1778123013 | 23.89° C | 31% | 1010.5 hPa | 0 mm | - | 8 W/m² | - |
| 1778122709 | 23.89° C | 31% | 1010.5 hPa | 0 mm | - | 10 W/m² | - |
| 1778122407 | 23.89° C | 31% | 1010.3 hPa | 0 mm | - | 12 W/m² | - |
| 1778122105 | 23.89° C | 31% | 1010.4 hPa | 0 mm | - | 14 W/m² | - |
| 1778121801 | 23.89° C | 32% | 1010.3 hPa | 0 mm | - | 16 W/m² | - |
| 1778121497 | 23.89° C | 33% | 1010.6 hPa | 0 mm | - | 23 W/m² | - |
| 1778121194 | 23.89° C | 33% | 1010.5 hPa | 0 mm | - | 30 W/m² | - |
| 1778120892 | 23.89° C | 33% | 1010.3 hPa | 0 mm | - | 20 W/m² | - |
| 1778120587 | 24.44° C | 31% | 1010.2 hPa | 0 mm | - | 23 W/m² | - |
| 1778120284 | 24.44° C | 31% | 1010.3 hPa | 0 mm | - | 24 W/m² | - |
| 1778119979 | 24.44° C | 30% | 1010.3 hPa | 0 mm | - | 25 W/m² | - |
| 1778119678 | 24.44° C | 31% | 1010.4 hPa | 0 mm | - | 28 W/m² | - |
| 1778119374 | 24.44° C | 31% | 1010.5 hPa | 0 mm | - | 33 W/m² | - |
| 1778119071 | 25° C | 30% | 1010.5 hPa | 0 mm | - | 32 W/m² | - |
| 1778118769 | 25° C | 29% | 1010.4 hPa | 0 mm | - | 35 W/m² | - |
| 1778118465 | 25° C | 28% | 1010.3 hPa | 0 mm | - | 33 W/m² | - |
| 1778118162 | 25° C | 29% | 1010.2 hPa | 0 mm | - | 32 W/m² | - |
* Rain latest hour (hover to see other rain measurements)
** Current wind speed in m/s (hover to see current wind gust speed)